Location: Mascot Post Office (historical)
(40.2645°N, 99.5462°W)
Time: 17:04:54
(UTC+00:00)

APEX - Pass Details

Date: 14 July 2020
Orbit: 333 x 1108 km, 69.9° (Epoch: 05 August)

Event Time Altitude Azimuth Distance (km) Brightness Sun altitude
Rises 04:30:58 0° 347° (NNW) 2,127 7.6 -20.8°
Reaches altitude 10° 04:33:02 10° 1° (N) 1,314 6.0 -21.0°
Enters shadow 04:34:44 23° 35° (NE) 829 4.4 -21.2°
